Flag for United Kingdom Weather past 2 weeks in Wakefield, England, United Kingdom

46 °F


Feels Like: 46 °F
Forecast: 43 / 57 °F
Wind: 1 mph from Northeast

Location: Leeds And Bradford

Current Time: Oct 10, 2015 at 8:57:00 AM

Latest Report: Oct 10, 2015 at 8:20 AM

Visibility: 1 mi

Pressure: 30.21 "Hg

Humidity: 100%

Dew point: 46 °F

Location of WakefieldLocation

Historic Weather in Wakefield — Graph


Wakefield temperature yesterday

Maximum temperature yesterday: 59 °F (at 12:20 PM)
Minimum temperature yesterday: 45 °F (at 2:50 AM)
Average temperature yesterday: 51 °F

Past Weeks' High & Low Weather Summary

High63 °F (Oct 2, 2:50 PM)100% (Sep 25, 7:20 AM)30.69 "Hg (Sep 25, 7:20 AM)
Low37 °F (Oct 2, 5:50 AM)48% (Sep 30, 4:20 PM)29.42 "Hg (Oct 6, 4:50 AM)
Average51 °F90%30.18 "Hg
* Reported Sep 25 7:20 AM — Oct 10 7:20 AM, Wakefield, Weather by CustomWeather, © 2015

Note: Actual official high and low records may vary slightly from our data, if they occured in-between our weather recording intervals... More about our weather records


Wakefield weather history for previous 24 hours

Time TempWeatherWind HumidityBarometerVisibility
7:20 AM
Sat, Oct 10
43 °FSleet. Overcast.2 mph100%30.21 "Hg1 mi
6:50 AM43 °FSleet. Overcast.3 mph100%30.21 "Hg1 mi
6:20 AM45 °FSleet. Fog.2 mph100%30.21 "Hg5 mi
5:50 AM45 °FClear.2 mph100%30.21 "Hg10 mi
5:20 AM46 °FClear.2 mph93%30.21 "Hg10 mi
4:50 AM46 °FClear.1 mph93%30.21 "Hg10 mi
4:20 AM48 °FClear.1 mph87%30.21 "Hg10 mi
3:50 AM46 °FClear.No wind93%30.21 "Hg10 mi
2:50 AM48 °FClear.1 mph94%30.21 "Hg10 mi
2:20 AM48 °FClear.2 mph94%30.21 "Hg10 mi
1:50 AM48 °FClear.3 mph94%30.21 "Hg10 mi
1:20 AM48 °FClear.3 mph94%30.21 "Hg10 mi
12:50 AM48 °FClear.3 mph94%30.21 "Hg10 mi
12:20 AM50 °FClear.1 mph88%30.21 "Hg10 mi
11:50 PM
Fri, Oct 9
50 °FClear.1 mph88%30.21 "Hg10 mi
11:20 PM52 °FClear.1 mph82%30.21 "Hg10 mi
10:20 PM52 °FClear.No wind82%30.21 "Hg10 mi
9:50 PM52 °FClear.1 mph82%30.21 "Hg10 mi
9:20 PM52 °FClear.No wind82%30.21 "Hg10 mi
8:50 PM52 °FClear.1 mph88%30.21 "Hg10 mi
8:20 PM54 °FClear.No wind77%30.21 "Hg10 mi
7:50 PM54 °FClear.1 mph82%30.21 "Hg10 mi
7:20 PM54 °FSunny.1 mph82%30.21 "Hg10 mi
6:50 PM54 °FPassing clouds.1 mph82%30.18 "HgN/A
6:20 PM55 °FScattered clouds.2 mph72%30.18 "HgN/A
5:50 PM55 °FScattered clouds.2 mph77%30.18 "HgN/A
5:20 PM57 °FPassing clouds.1 mph77%30.18 "HgN/A
4:50 PM57 °FScattered clouds.1 mph77%30.18 "HgN/A
4:20 PM57 °FPassing clouds.1 mph72%30.18 "HgN/A
3:50 PM57 °FPassing clouds.3 mph72%30.18 "HgN/A
3:20 PM57 °FScattered clouds.3 mph72%30.18 "HgN/A
2:50 PM57 °FPassing clouds.1 mph72%30.18 "HgN/A
2:20 PM57 °FScattered clouds.2 mph72%30.18 "HgN/A
1:50 PM59 °FScattered clouds.2 mph63%30.18 "HgN/A
1:20 PM59 °FScattered clouds.1 mph72%30.18 "HgN/A
12:50 PM59 °FPassing clouds.6 mph68%30.18 "HgN/A
12:20 PM59 °FPassing clouds.5 mph68%30.18 "HgN/A
11:50 AM57 °FPassing clouds.5 mph72%30.21 "HgN/A
11:20 AM55 °FPassing clouds.3 mph77%30.21 "HgN/A
10:50 AM55 °FPassing clouds.5 mph77%30.21 "HgN/A
10:20 AM54 °FSunny.5 mph82%30.21 "Hg10 mi
9:50 AM52 °FSunny.3 mph88%30.21 "Hg10 mi
9:20 AM46 °FSunny.1 mph100%30.18 "Hg10 mi
8:50 AM46 °FSunny.3 mph100%30.18 "Hg10 mi
8:20 AM46 °FClear.1 mph93%30.18 "Hg10 mi
Weather by CustomWeather, © 2015

See weather overviewHow to use our weather pages